Home   Weather   Melbourne Bluff   Past weeks
Flag for Australia

Past Weather in Melbourne Bluff, Heard and McDonald Islands, Australia — Yesterday and Last 2 Weeks

Now
54 °F

Rain showers. Partly cloudy.


Feels Like: 47 °F
Forecast: 60 / 53 °F
Wind: 28 mph from West

Location: Belmont Perth Airport

Current Time: Jul 19, 2019 at 9:37:30 pm

Latest Report: Jul 19, 2019 at 9:00 pm


Visibility: 4 mi

Pressure: 29.83 "Hg

Humidity: 88%

Dew Point: 50 °F

Location of Melbourne BluffLocation

Past Weather in Melbourne Bluff — Graph

°F

Melbourne Bluff Temperature Yesterday

Maximum temperature yesterday: 68 °F (at 11:00 am)
Minimum temperature yesterday: 46 °F (at 12:00 am)
Average temperature yesterday: 57 °F

High & Low Weather Summary for the Past Weeks

 TemperatureHumidityPressure
High72 °F (Jul 17, 10:00 am)100% (Jul 4, 9:00 pm)30.54 "Hg (Jul 4, 9:00 pm)
Low41 °F (Jul 6, 2:30 am)29% (Jul 17, 11:00 am)29.68 "Hg (Jul 19, 11:30 am)
Average55 °F79%30.25 "Hg
* Reported Jul 4 8:00 pm — Jul 19 8:00 pm, Melbourne Bluff. Weather by CustomWeather, © 2019

Note: Actual official high and low records may vary slightly from our data, if they occured in-between our weather recording intervals... More about our weather records

Advertising

Melbourne Bluff Weather History for the Previous 24 Hours

Scroll right to see more
 ConditionsComfort  
Time TempWeatherWind HumidityBarometerVisibility
8:00 pm
Fri, Jul 19
54 °FScattered showers. Partly cloudy.12 mph88%29.80 "HgN/A
7:30 pm54 °FPartly cloudy.14 mph88%29.80 "HgN/A
7:13 pm54 °FSprinkles. Partly cloudy.18 mph88%29.80 "Hg5 mi
7:00 pm55 °FLight rain. Mostly cloudy.9 mph88%29.80 "Hg4 mi
6:30 pm55 °FSprinkles. Partly cloudy.15 mph88%29.77 "HgN/A
6:00 pm55 °FRain. Partly cloudy.14 mph88%29.77 "Hg6 mi
5:30 pm57 °FSprinkles. Partly cloudy.20 mph77%29.77 "HgN/A
5:00 pm57 °FScattered showers. Passing clouds.16 mph82%29.74 "HgN/A
4:30 pm57 °FScattered showers. Partly cloudy.23 mph88%29.74 "HgN/A
4:22 pm57 °FRain showers. Partly cloudy.18 mph88%29.74 "Hg4 mi
4:00 pm57 °FRain showers. Partly cloudy.22 mph94%29.74 "Hg4 mi
3:30 pm59 °FPassing clouds.17 mph88%29.71 "HgN/A
3:25 pm59 °FScattered showers. Passing clouds.15 mph88%29.71 "HgN/A
3:06 pm59 °FSprinkles. Mostly cloudy.17 mph88%29.71 "Hg3 mi
3:00 pm61 °FSprinkles. Partly cloudy.14 mph77%29.68 "Hg2 mi
2:30 pm59 °FSprinkles. Partly sunny.8 mph94%29.68 "HgN/A
2:18 pm59 °FSprinkles. Broken clouds.10 mph94%29.68 "HgN/A
2:00 pm59 °FSprinkles. Cloudy.17 mph88%29.71 "Hg2 mi
1:30 pm59 °FSprinkles. Partly sunny.12 mph94%29.68 "Hg2 mi
1:00 pm59 °FSprinkles. Broken clouds.24 mph94%29.68 "Hg3 mi
12:38 pm64 °FSprinkles. Partly sunny.28 mph78%29.68 "HgN/A
12:00 pm63 °FSprinkles. Mostly cloudy.20 mph83%29.68 "HgN/A
11:30 am64 °FSprinkles. Partly sunny.24 mph73%29.68 "HgN/A
11:04 am66 °FPartly sunny.20 mph64%29.71 "HgN/A
10:30 am66 °FPartly sunny.21 mph68%29.71 "HgN/A
10:00 am66 °FBroken clouds.18 mph73%29.74 "HgN/A
9:30 am64 °FPartly sunny.20 mph78%29.77 "HgN/A
9:00 am64 °FPartly sunny.17 mph78%29.80 "HgN/A
8:34 am64 °FPartly sunny.14 mph83%29.80 "HgN/A
8:00 am63 °FPassing clouds.13 mph83%29.83 "HgN/A
7:30 am61 °FPartly sunny.14 mph88%29.83 "HgN/A
7:00 am59 °FPartly sunny.10 mph88%29.86 "HgN/A
6:30 am57 °FBroken clouds.10 mph94%29.86 "HgN/A
6:00 am55 °FBroken clouds.8 mph94%29.86 "HgN/A
5:00 am55 °FScattered showers. Mostly cloudy.7 mph94%29.86 "HgN/A
4:36 am55 °FLight rain. Mostly cloudy.5 mph94%29.89 "Hg2 mi
4:00 am54 °FPassing clouds.10 mph100%29.86 "HgN/A
3:30 am55 °FLight rain. Mostly cloudy.9 mph94%29.86 "HgN/A
3:00 am55 °FMostly cloudy.10 mph94%29.86 "Hg6 mi
2:30 am55 °FPassing clouds.9 mph94%29.89 "Hg6 mi
2:00 am55 °FPartly cloudy.8 mph94%29.89 "Hg4 mi
1:30 am54 °FPassing clouds.10 mph100%29.89 "Hg5 mi
1:00 am54 °FFog.10 mph100%29.89 "Hg3 mi
12:38 am54 °FPassing clouds.12 mph100%29.89 "Hg5 mi
12:00 am52 °FClear.8 mph100%29.92 "Hg6 mi
11:30 pm
Thu, Jul 18
54 °FPassing clouds.8 mph94%29.92 "Hg5 mi
11:00 pm54 °FClear.7 mph94%29.92 "Hg4 mi
10:30 pm54 °FPartly cloudy.7 mph100%29.95 "Hg5 mi
10:00 pm52 °FPartly cloudy.8 mph100%29.95 "Hg5 mi
9:30 pm52 °FClear.6 mph100%29.98 "Hg10 mi
9:00 pm52 °FPassing clouds.7 mph100%29.98 "HgN/A
Weather by CustomWeather, © 2019

See weather overview